This is the latest recevied weather packets stored in our database for station/object NE8U. If no packets are shown the sender has not sent any weather packets the latest 10 day(s).
| Time | Temp. | Humidity | Pressure | Rain* | Wind** | Luminosity | Snow |
|---|---|---|---|---|---|---|---|
| 1777999926 | 18.89° C | 65% | 1014.3 hPa | 0 mm | - | 255 W/m² | - |
| 1777999622 | 18.89° C | 63% | 1014.3 hPa | 0 mm | - | 218 W/m² | - |
| 1777999319 | 18.89° C | 65% | 1014.3 hPa | 0 mm | - | 241 W/m² | - |
| 1777999017 | 18.89° C | 66% | 1014.4 hPa | 0 mm | - | 304 W/m² | - |
| 1777998715 | 18.89° C | 66% | 1014.3 hPa | 0 mm | - | 331 W/m² | - |
| 1777998412 | 18.33° C | 68% | 1014.3 hPa | 0 mm | - | 220 W/m² | - |
| 1777998109 | 17.78° C | 69% | 1014.4 hPa | 0 mm | - | 271 W/m² | - |
| 1777997806 | 17.78° C | 71% | 1014.2 hPa | 0 mm | - | 221 W/m² | - |
| 1777997504 | 17.78° C | 71% | 1014.3 hPa | 0 mm | - | 212 W/m² | - |
| 1777997202 | 17.78° C | 71% | 1014.3 hPa | 0 mm | - | 173 W/m² | - |
| 1777996899 | 17.78° C | 73% | 1014.3 hPa | 0 mm | - | 178 W/m² | - |
| 1777996594 | 17.78° C | 74% | 1014.2 hPa | 0 mm | - | 199 W/m² | - |
| 1777996291 | 17.22° C | 74% | 1014.2 hPa | 0 mm | - | 190 W/m² | - |
| 1777995987 | 17.22° C | 73% | 1014.2 hPa | 0 mm | - | 123 W/m² | - |
| 1777995683 | 17.22° C | 74% | 1014.2 hPa | 0 mm | - | 142 W/m² | - |
| 1777995381 | 17.22° C | 74% | 1014.2 hPa | 0 mm | - | 184 W/m² | - |
| 1777995078 | 17.78° C | 80% | 1014 hPa | 0 mm | - | 245 W/m² | - |
| 1777994775 | 16.67° C | 84% | 1014.1 hPa | 0 mm | - | 219 W/m² | - |
| 1777994470 | 16.11° C | 89% | 1014.2 hPa | 0 mm | - | 188 W/m² | - |
| 1777994166 | 16.11° C | 92% | 1014 hPa | 0 mm | - | 176 W/m² | - |
| 1777993864 | 15.56° C | 94% | 1014.1 hPa | 0 mm | - | 182 W/m² | - |
| 1777993560 | 15° C | 95% | 1014.1 hPa | 0 mm | - | 107 W/m² | - |
| 1777993256 | 15.56° C | 96% | 1014.2 hPa | 0 mm | - | 84 W/m² | - |
| 1777992952 | 15.56° C | 96% | 1014.1 hPa | 0 mm | - | 88 W/m² | - |
| 1777992651 | 15.56° C | 96% | 1014 hPa | 0 mm | - | 81 W/m² | - |
* Rain latest hour (hover to see other rain measurements)
** Current wind speed in m/s (hover to see current wind gust speed)